Location: Paddlesworth
(51.1000°N, 1.1333°E)
Time: 01:59:31
(UTC+00:00)

Okean 1 - Pass Details

Date: 27 September 2021
Orbit: 538 x 553 km, 82.5° (Epoch: 17 October)

Event Time Altitude Azimuth Distance (km) Brightness Sun altitude
Rises 04:43:24 0° 189° (S) 2,683 6.6 -11.2°
Reaches altitude 10° 04:45:32 10° 189° (S) 1,797 5.7 -10.9°
Maximum altitude 04:49:29 90° 229° (SW) 548 3.3 -10.2°
Drops below altitude 10° 04:53:30 10° 10° (N) 1,817 6.2 -9.6°
Sets 04:55:40 0° 11° (N) 2,716 7.1 -9.3°
